GW0410 Weather Reports


time (UTC)temp
C
wind
direction
speed
KPH
gust
KPH
rain 1hr
cm
rain 24hr
cm
rain mn
cm
humidity
%
barometer
mb
20260906085035 18 344 0.0 4.8 0.00 0.00 0.00 59 1026.6
20260906084037 19 345 0.0 4.8 0.00 0.00 0.00 59 1026.7
20260906083042 20 338 1.6 4.8 0.00 0.00 0.00 57 1026.8
20260906082107 19 259 1.6 4.8 0.00 0.00 0.00 58 1026.7
20260906081016 18 320 0.0 1.6 0.00 0.00 0.00 59 1026.4
20260906080049 18 350 1.6 8.0 0.00 0.00 0.00 60 1026.7
20260906075026 18 318 0.0 1.6 0.00 0.00 0.00 63 1026.7
20260906074035 18 353 1.6 4.8 0.00 0.00 0.00 62 1026.4
20260906073024 17 349 1.6 3.2 0.00 0.00 0.00 65 1026.4
20260906072048 17 310 0.0 1.6 0.00 0.00 0.00 67 1026.4
20260906071042 17 303 0.0 0.0 0.00 0.00 0.00 68 1026.4
20260906070053 17 63 0.0 1.6 0.00 0.00 0.00 68 1026.4
20260906065054 17 350 0.0 1.6 0.00 0.03 0.00 69 1026.4
20260906064114 18 340 0.0 4.8 0.00 0.03 0.00 68 1026.2
20260906063041 17 277 0.0 1.6 0.00 0.05 0.00 70 1026.1
20260906062028 16 295 0.0 0.0 0.00 0.05 0.00 75 1026.0
20260906061031 14 314 0.0 0.0 0.00 0.05 0.00 80 1025.7
20260906055031 12 0.0 0.0 0.00 0.05 0.00 89 1025.9
20260906054034 11 0.0 0.0 0.00 0.05 0.00 91 1025.5
20260906053029 10 0.0 0.0 0.00 0.05 0.00 92 1025.2
20260906052110 10 0.0 0.0 0.00 0.05 0.00 92 1025.1
20260906051053 9 0.0 0.0 0.00 0.05 0.00 92 1024.7
20260906050056 8 0.0 0.0 0.00 0.05 0.00 92 1024.7
20260906045030 8 0.0 0.0 0.00 0.05 0.00 91 1024.7
20260906044055 8 0.0 0.0 0.00 0.05 0.00 91 1024.7
20260906043023 8 0.0 0.0 0.00 0.05 0.00 91 1024.8
20260906042044 8 0.0 0.0 0.00 0.05 0.00 90 1024.8
20260906041052 8 0.0 0.0 0.00 0.05 0.00 90 1024.8
20260906040026 8 0.0 0.0 0.00 0.05 0.00 90 1024.5
20260906035043 8 0.0 0.0 0.00 0.05 0.00 89 1024.5
20260906034024 9 0.0 0.0 0.00 0.05 0.00 89 1024.6
20260906033022 9 259 0.0 0.0 0.00 0.05 0.00 87 1024.3
20260906032023 9 0.0 0.0 0.00 0.05 0.00 86 1024.4
20260906031022 9 0.0 0.0 0.00 0.05 0.00 86 1024.3
20260906030037 10 0.0 0.0 0.00 0.05 0.00 85 1024.4
20260906025031 10 0.0 0.0 0.00 0.05 0.00 84 1024.4
20260906024024 10 0.0 0.0 0.00 0.05 0.00 83 1024.0
20260906023023 11 0.0 0.0 0.00 0.05 0.00 82 1024.0
20260906022041 11 0.0 0.0 0.00 0.05 0.00 80 1024.1
20260906021024 11 0.0 0.0 0.00 0.05 0.00 80 1024.4
20260906020024 11 0.0 0.0 0.00 0.05 0.00 79 1023.8
20260906015022 12 0.0 0.0 0.00 0.05 0.00 79 1023.8
20260906014053 12 0.0 0.0 0.00 0.05 0.00 79 1024.1
20260906013025 12 0.0 0.0 0.00 0.05 0.00 78 1023.8
20260906012059 12 225 0.0 0.0 0.00 0.05 0.00 77 1023.8
20260906011040 12 246 0.0 1.6 0.00 0.05 0.00 77 1023.7
20260906010119 12 263 0.0 0.0 0.00 0.05 0.00 78 1023.7
20260906005058 12 0.0 0.0 0.00 0.05 0.00 78 1023.7
20260906004046 12 248 0.0 0.0 0.00 0.05 0.00 78 1023.3
20260906003044 12 254 0.0 0.0 0.00 0.05 0.00 78 1023.3
20260906002022 12 0.0 0.0 0.00 0.05 0.00 77 1023.4
20260906001025 12 0.0 0.0 0.00 0.05 0.00 76 1023.3
20260906000037 13 0.0 0.0 0.00 0.05 0.00 75 1023.4
20260905235048 13 0.0 0.0 0.00 0.05 0.00 73 1023.4
20260905234053 13 0.0 0.0 0.00 0.05 0.00 72 1023.0
20260905233120 13 0.0 0.0 0.00 0.05 0.00 71 1023.0
20260905232029 14 234 0.0 0.0 0.00 0.05 0.00 71 1023.1
20260905231024 14 0.0 0.0 0.00 0.05 0.00 71 1023.1
20260905230053 13 0.0 0.0 0.00 0.05 0.00 71 1022.7
20260905225044 13 0.0 0.0 0.00 0.05 0.00 73 1022.7
20260905224023 14 0.0 0.0 0.00 0.05 0.00 72 1022.7
20260905223026 14 0.0 0.0 0.00 0.05 0.00 72 1022.7
20260905222052 14 0.0 0.0 0.00 0.05 0.00 71 1022.7
20260905221039 14 0.0 0.0 0.00 0.05 0.00 72 1023.0
20260905215057 13 0.0 0.0 0.00 0.05 0.05 76 1022.2
20260905214033 13 0.0 0.0 0.00 0.05 0.05 78 1022.2
20260905213043 13 0.0 0.0 0.00 0.05 0.05 79 1021.9
20260905212053 13 0.0 0.0 0.00 0.05 0.05 79 1021.9
20260905211023 14 0.0 0.0 0.00 0.05 0.05 79 1021.9
20260905210053 14 0.0 0.0 0.00 0.05 0.05 78 1021.8
20260905205051 15 0.0 0.0 0.00 0.05 0.05 77 1021.8
20260905204037 15 0.0 0.0 0.00 0.05 0.05 76 1021.4
20260905203043 15 0.0 0.0 0.00 0.05 0.05 75 1021.7
20260905202041 15 0.0 0.0 0.00 0.05 0.05 74 1021.7
20260905201050 15 0.0 0.0 0.00 0.05 0.05 73 1021.4
20260905200024 16 0.0 0.0 0.00 0.05 0.05 71 1021.5
20260905195055 16 0.0 0.0 0.00 0.05 0.05 70 1021.4
20260905194120 16 0.0 0.0 0.00 0.05 0.05 69 1021.1
20260905193032 17 0.0 0.0 0.00 0.05 0.05 68 1021.5
20260905192037 17 0.0 0.0 0.00 0.05 0.05 67 1021.5
20260905191053 17 0.0 0.0 0.00 0.05 0.05 66 1020.9
20260905190044 17 0.0 0.0 0.00 0.05 0.05 66 1020.6
20260905185053 18 335 0.0 0.0 0.00 0.05 0.05 66 1020.6
20260905184029 18 0.0 0.0 0.00 0.05 0.05 65 1020.6
20260905183032 18 0.0 0.0 0.00 0.05 0.05 64 1020.3
20260905182052 18 0.0 0.0 0.00 0.05 0.05 63 1020.3
20260905181045 18 0.0 0.0 0.00 0.05 0.05 62 1020.4
20260905180022 19 0.0 0.0 0.00 0.05 0.05 60 1020.0
20260905175024 20 0.0 0.0 0.00 0.05 0.05 59 1020.1
20260905174031 20 0.0 0.0 0.00 0.05 0.05 57 1019.7
20260905173029 20 321 0.0 1.6 0.00 0.05 0.05 55 1019.7
20260905172026 20 285 1.6 4.8 0.00 0.05 0.05 55 1019.7
20260905171026 20 321 0.0 0.0 0.00 0.05 0.05 56 1019.8
20260905170024 20 246 0.0 1.6 0.00 0.05 0.05 55 1019.5
20260905165052 21 270 0.0 0.0 0.00 0.05 0.05 55 1019.5
20260905164033 21 0.0 0.0 0.00 0.05 0.05 53 1019.5
20260905163054 21 311 0.0 1.6 0.00 0.05 0.05 51 1019.5
20260905162037 21 292 0.0 0.0 0.00 0.05 0.05 50 1019.6
20260905161046 22 290 0.0 1.6 0.00 0.05 0.05 49 1019.6
20260905160047 22 264 1.6 4.8 0.00 0.05 0.05 48 1019.3
20260905155022 22 309 0.0 1.6 0.00 0.05 0.05 48 1019.3
20260905154031 23 295 1.6 6.4 0.00 0.05 0.05 47 1019.3
20260905153023 23 278 3.2 6.4 0.00 0.05 0.05 45 1019.4
20260905152025 25 291 3.2 6.4 0.00 0.05 0.05 44 1019.4
20260905151042 26 282 1.6 4.8 0.00 0.05 0.05 43 1019.5
20260905150024 26 288 0.0 1.6 0.00 0.05 0.05 44 1019.2
20260905145022 25 336 1.6 4.8 0.00 0.05 0.05 44 1019.2
20260905144041 25 317 1.6 3.2 0.00 0.05 0.05 44 1019.2
20260905143034 25 327 1.6 4.8 0.00 0.05 0.05 44 1019.2
20260905142055 25 320 1.6 3.2 0.00 0.05 0.05 45 1019.2
20260905141025 25 329 1.6 4.8 0.00 0.05 0.05 46 1019.5
20260905140031 25 304 1.6 4.8 0.00 0.05 0.05 44 1019.2
20260905135024 26 254 1.6 4.8 0.00 0.05 0.05 44 1019.3
20260905134028 25 300 1.6 3.2 0.00 0.05 0.05 46 1019.6
20260905133102 25 344 1.6 4.8 0.00 0.05 0.05 46 1019.6
20260905132024 25 302 1.6 1.6 0.00 0.05 0.05 47 1019.6
20260905131024 25 334 1.6 4.8 0.00 0.05 0.05 46 1019.6
20260905130029 24 330 1.6 6.4 0.00 0.05 0.05 48 1019.5
20260905125023 24 350 1.6 6.4 0.00 0.05 0.05 48 1019.5
20260905124033 23 289 0.0 4.8 0.00 0.05 0.05 50 1019.5
20260905123056 23 340 0.0 3.2 0.00 0.05 0.05 51 1019.5
20260905122025 23 306 1.6 3.2 0.00 0.05 0.05 51 1019.5
20260905121111 22 268 3.2 6.4 0.00 0.05 0.05 51 1019.4
20260905120023 22 261 4.8 8.0 0.00 0.05 0.05 51 1019.4
20260905115023 22 283 4.8 8.0 0.00 0.05 0.05 53 1019.4
20260905114028 22 270 4.8 8.0 0.00 0.05 0.05 54 1019.8
20260905113027 22 275 4.8 8.0 0.00 0.05 0.05 56 1019.7
20260905112108 22 267 3.2 8.0 0.00 0.05 0.05 56 1019.7
20260905111023 22 262 1.6 6.4 0.00 0.05 0.05 59 1019.7
20260905110023 21 286 1.6 8.0 0.00 0.05 0.05 63 1020.0
20260905105025 21 0.0 0.0 0.00 0.05 0.05 65 1020.0
20260905104022 21 266 0.0 1.6 0.00 0.05 0.05 65 1020.0
20260905103038 21 245 1.6 9.7 0.00 0.05 0.05 66 1020.0
20260905102049 21 274 1.6 6.4 0.00 0.05 0.05 66 1020.0
20260905101103 21 245 0.0 3.2 0.00 0.05 0.05 66 1020.4
20260905100026 20 281 1.6 6.4 0.00 0.05 0.05 68 1020.0
20260905095024 20 267 1.6 6.4 0.00 0.05 0.05 71 1020.0
20260905094056 20 256 3.2 8.0 0.00 0.05 0.05 71 1020.3
20260905093037 20 250 1.6 6.4 0.00 0.05 0.05 72 1020.6
20260905092025 20 242 1.6 4.8 0.00 0.05 0.05 73 1020.6
20260905091052 18 291 0.0 3.2 0.00 0.05 0.05 76 1020.2
20260905090020 17 280 3.2 6.4 0.00 0.05 0.05 78 1020.5